Location: State Camp
(41.2367°N, 77.7828°W)
Time: 13:19:37
(UTC-04:00)

ADEOS Rocket - Visible Passes

Search period start: 26 September 2016 00:00
Search period end: 06 October 2016 00:00
Orbit: 860 x 1306 km, 98.7° (Epoch: 25 September)

Date Brightness Start Highest point End Pass type
(mag) Time Alt. Az. Time Alt. Az. Time Alt. Az.
26 Sep 4.5 04:24:19 10° NNE 04:30:55 37° E 04:36:51 10° SSE visible
26 Sep 3.8 06:09:42 10° N 06:16:23 41° WNW 06:22:26 10° SW visible
27 Sep 5.7 03:37:18 10° NE 03:41:16 16° E 03:45:00 10° ESE visible
27 Sep 3.2 05:20:32 10° NNE 05:27:47 86° WNW 05:34:15 10° SSW visible
28 Sep 4.3 04:31:59 10° NNE 04:38:42 43° E 04:44:43 10° SSE visible
28 Sep 3.9 06:17:38 10° N 06:23:59 35° WNW 06:29:47 10° SW visible
29 Sep 5.5 03:44:36 10° NE 03:49:07 18° E 03:53:21 10° SE visible
29 Sep 3.2 05:28:21 10° N 05:35:28 76° WNW 05:41:48 10° SSW visible
30 Sep 4.0 04:39:40 10° NNE 04:46:28 49° E 04:52:31 10° S visible
30 Sep 4.0 06:25:36 10° N 06:31:34 31° WNW 06:37:03 10° WSW visible
01 Oct 5.3 03:51:59 10° NE 03:56:57 21° E 04:01:33 10° SE visible
01 Oct 3.2 05:36:11 10° N 05:43:07 66° WNW 05:49:19 10° SSW visible
02 Oct 3.7 04:47:23 10° NNE 04:54:12 57° E 05:00:16 10° S visible
02 Oct 4.2 06:33:34 10° N 06:39:08 26° WNW 06:44:16 10° WSW visible
03 Oct 5.1 03:59:28 10° NE 04:04:46 24° E 04:09:40 10° SE visible
03 Oct 3.2 05:44:01 10° N 05:50:46 57° WNW 05:56:48 10° SW visible
04 Oct 3.4 04:55:06 10° NNE 05:01:55 66° E 05:07:58 10° S visible
04 Oct 4.3 06:41:36 10° N 06:46:41 23° WNW 06:51:25 10° WSW visible
05 Oct 4.9 04:06:59 10° NE 04:12:34 27° E 04:17:40 10° SSE visible
05 Oct 3.4 05:51:53 10° N 05:58:23 49° WNW 06:04:13 10° SW visible
